Flag for France Weather past 2 weeks in Bastia, Corsica, France

Now
81 °F

Scattered clouds.


Feels Like: 84 °F
Forecast: 68 / 77 °F
Wind: 5 mph from Northeast

Location: Bastia Airport

Current Time: Sep 20, 2014 at 12:00:49 PM

Latest Report: Sep 20, 2014 at 11:30 AM


Visibility: N/A

Pressure: 30.04 "Hg

Humidity: 70%

Dew point: 70 °F

Location of BastiaLocation

Historic Weather in Bastia — Graph

°F

Bastia temperature yesterday

Maximum temperature yesterday: 82 °F (at 1:30 PM)
Minimum temperature yesterday: 73 °F (at 12:00 AM)
Average temperature yesterday: 77 °F

Past Weeks' High & Low Weather Summary

 TemperatureHumidityPressure
High82 °F (Sep 5, 12:30 PM)94% (Sep 9, 2:30 AM)30.04 "Hg (Sep 9, 2:30 AM)
Low59 °F (Sep 13, 1:00 AM)42% (Sep 6, 10:30 AM)29.74 "Hg (Sep 11, 5:30 AM)
Average72 °F76%29.92 "Hg
* Reported Sep 5 10:00 AM — Sep 20 10:30 AM, Bastia, Weather by CustomWeather, © 2014

Note: Actual official high and low records may vary slightly from our data, if they occured in-between our weather recording intervals... More about our weather records

Advertising

Bastia weather history for previous 24 hours

 ConditionsComfort  
Time TempWeatherWind HumidityBarometerVisibility
10:30 AM
Sep 20
81 °FPartly sunny.3 mph70%30.04 "HgN/A
10:00 AM79 °FPartly sunny.5 mph74%30.04 "HgN/A
9:30 AM77 °FPartly sunny.2 mph74%30.01 "HgN/A
9:00 AM73 °FPartly sunny.No wind94%30.01 "HgN/A
8:30 AM72 °FPartly sunny.2 mph88%30.01 "HgN/A
8:00 AM70 °FPassing clouds.2 mph94%29.98 "Hg6 mi
7:30 AM70 °FPassing clouds.2 mph88%29.98 "Hg6 mi
7:00 AM70 °FPassing clouds.3 mph94%29.95 "Hg5 mi
6:30 AM70 °FMostly cloudy.3 mph94%29.95 "Hg3 mi
6:00 AM72 °FMostly cloudy.3 mph88%29.95 "Hg3 mi
5:30 AM73 °FPartly cloudy.5 mph89%29.98 "Hg3 mi
4:30 AM73 °FLight rain. Fog.6 mph94%30.01 "Hg3 mi
4:00 AM73 °FLight rain. Fog.3 mph94%30.04 "Hg3 mi
3:00 AM73 °FOvercast.3 mph94%30.01 "Hg4 mi
2:30 AM73 °FMostly cloudy.3 mph94%30.01 "Hg6 mi
2:00 AM73 °FFog.3 mph94%30.04 "Hg3 mi
1:30 AM73 °FPassing clouds.3 mph94%30.01 "Hg4 mi
1:00 AM73 °FFog.No wind94%30.01 "Hg2 mi
12:30 AM75 °FFog.No wind94%30.01 "Hg2 mi
12:00 AM73 °FFog.No wind94%30.01 "Hg2 mi
11:30 PM
Sep 19
75 °FFog.No wind89%30.01 "Hg1 mi
10:30 PM75 °FFog.No wind94%30.01 "Hg2 mi
9:30 PM75 °FFog.No wind94%30.01 "Hg2 mi
9:00 PM75 °FFog.3 mph94%30.01 "Hg2 mi
8:30 PM75 °FFog.5 mph94%30.01 "Hg3 mi
8:00 PM77 °FPartly sunny.6 mph89%29.98 "Hg3 mi
7:30 PM77 °FPartly sunny.6 mph89%29.98 "Hg3 mi
7:00 PM77 °FPartly sunny.8 mph89%29.98 "Hg3 mi
6:30 PM77 °FPartly sunny.7 mph89%29.95 "Hg3 mi
6:00 PM77 °FPartly sunny.8 mph89%29.95 "Hg3 mi
5:30 PM77 °FPartly sunny.10 mph89%29.98 "Hg3 mi
5:00 PM77 °FPartly sunny.9 mph89%29.95 "Hg3 mi
4:30 PM79 °FPartly sunny.9 mph84%29.98 "Hg4 mi
4:00 PM79 °FPartly sunny.7 mph84%29.98 "Hg5 mi
3:30 PM81 °FBroken clouds.8 mph79%29.98 "Hg5 mi
3:00 PM81 °FBroken clouds.7 mph79%30.01 "Hg5 mi
2:30 PM81 °FBroken clouds.8 mph79%29.98 "Hg5 mi
2:00 PM82 °FPartly sunny.10 mph74%29.98 "Hg5 mi
1:30 PM82 °FPartly sunny.13 mph74%29.98 "Hg5 mi
1:00 PM81 °FBroken clouds.13 mph79%29.98 "Hg5 mi
12:30 PM79 °FBroken clouds.10 mph84%29.98 "Hg5 mi
12:00 PM79 °FBroken clouds.10 mph84%29.98 "Hg4 mi
Weather by CustomWeather, © 2014

See weather overviewHow to use our weather pages